N0DP Weather Reports


time (UTC)temp
C
wind
direction
speed
KPH
gust
KPH
rain 1hr
cm
rain 24hr
cm
rain mn
cm
humidity
%
barometer
mb
20260502212016 19 248 6.4 20.9 0.00 0.00 0.00 36 1009.2
20260502211017 19 270 3.2 9.7 0.00 0.00 0.00 37 1009.4
20260502210016 19 225 4.8 17.7 0.00 0.00 0.00 37 1009.4
20260502205036 19 270 6.4 20.9 0.00 0.00 0.00 36 1009.7
20260502204016 19 225 3.2 20.9 0.00 0.00 0.00 39 1010.1
20260502203016 18 293 3.2 11.3 0.00 0.00 0.00 37 1010.0
20260502202016 18 270 3.2 11.3 0.00 0.00 0.00 36 1010.3
20260502201016 18 270 8.0 27.4 0.00 0.00 0.00 36 1010.8
20260502200016 18 225 1.6 11.3 0.00 0.00 0.00 36 1010.8
20260502195016 17 225 1.6 9.7 0.00 0.00 0.00 36 1011.0
20260502194016 17 225 1.6 11.3 0.00 0.00 0.00 38 1011.3
20260502193016 17 180 1.6 11.3 0.00 0.00 0.00 37 1011.2
20260502192016 17 0 3.2 16.1 0.00 0.00 0.00 38 1011.6
20260502191117 17 315 4.8 17.7 0.00 0.00 0.00 38
20260502190016 17 0 6.4 9.7 0.00 0.00 0.00 38 1011.9
20260502185016 17 0.0 0.0 0.00 0.00 0.00 38
20260502184016 17 302 4.8 0.0 0.00 0.00 0.00 38
20260502183016 17 248 3.2 6.4 0.00 0.00 0.00 38 1012.4
20260502182016 17 0 1.6 9.7 0.00 0.00 0.00 38 1012.8
20260502181017 17 338 3.2 11.3 0.00 0.00 0.00 38 1012.9
20260502164016 15 315 4.8 19.3 0.00 0.00 0.00 39 1014.5
20260502163016 15 338 3.2 17.7 0.00 0.00 0.00 41 1014.6
20260502162016 15 0 1.6 4.8 0.00 0.00 0.00 41 1014.7
20260502161016 14 338 1.6 16.1 0.00 0.00 0.00 44 1014.9
20260502152016 13 315 3.2 11.3 0.00 0.00 0.00 49 1015.4
20260502151016 12 338 3.2 16.1 0.00 0.00 0.00 54 1015.4
20260502123017 6 338 1.6 8.0 0.00 0.00 0.00 73 1015.9
20260502122038 5 0.0 1.6 0.00 0.00 0.00 79 1015.7
20260502121017 4 0.0 3.2 0.00 0.00 0.00 85 1015.8
20260502115017 2 0.0 0.0 0.00 0.00 0.00 94 1015.7
20260502114018 1 0.0 1.6 0.00 0.00 0.00 94 1015.6
20260502113038 1 0.0 0.0 0.00 0.00 0.00 94 1015.7
20260502112017 1 0.0 0.0 0.00 0.00 0.00 94 1015.6
20260502111017 1 0.0 0.0 0.00 0.00 0.00 93 1015.5
20260502110038 1 0.0 0.0 0.00 0.00 0.00 93 1015.5
20260502105018 1 0.0 0.0 0.00 0.00 0.00 93 1015.4
20260502104037 1 0.0 0.0 0.00 0.00 0.00 92 1015.5
20260502103017 1 0.0 0.0 0.00 0.00 0.00 92 1015.5
20260502102017 1 0.0 0.0 0.00 0.00 0.00 92 1015.5
20260502101017 1 0.0 0.0 0.00 0.00 0.00 91 1015.5
20260502091037 1 0.0 0.0 0.00 0.00 0.00 91 1015.3
20260502071057 1 0.0 0.0 0.00 0.00 0.00 94 1015.8
20260502070017 1 0.0 0.0 0.00 0.00 0.00 93 1015.8
20260502065017 1 0.0 0.0 0.00 0.00 0.00 93 1015.9
20260502064037 1 0.0 0.0 0.00 0.00 0.00 92 1015.9
20260502063017 1 0.0 0.0 0.00 0.00 0.00 92 1015.9
20260502062017 1 0.0 0.0 0.00 0.00 0.00 91 1015.9
20260502061017 1 0.0 0.0 0.00 0.00 0.00 91 1015.9
20260502060018 1 0.0 0.0 0.00 0.00 0.00 90 1016.0
20260502055017 1 0.0 0.0 0.00 0.00 0.00 90 1016.0
20260502054018 1 0.0 0.0 0.00 0.00 0.00 89 1016.0
20260502053017 1 0.0 0.0 0.00 0.00 0.00 89 1015.9
20260502052017 1 0.0 0.0 0.00 0.00 0.00 87 1016.0
20260502051017 2 0.0 0.0 0.00 0.00 0.00 87 1016.0
20260502050017 2 0.0 0.0 0.00 0.00 0.00 86 1016.0
20260502045017 2 0.0 0.0 0.00 0.00 0.00 85 1015.9
20260502044017 2 0.0 0.0 0.00 0.00 0.00 83 1015.9
20260502043016 2 0.0 0.0 0.00 0.00 0.00 82 1016.0
20260502042016 2 0.0 0.0 0.00 0.00 0.00 81 1015.9
20260502041017 2 0.0 0.0 0.00 0.00 0.00 80 1016.0
20260502040017 3 0.0 0.0 0.00 0.00 0.00 79 1015.9
20260502035016 3 0.0 0.0 0.00 0.00 0.00 76 1015.9
20260502034017 3 0.0 0.0 0.00 0.00 0.00 74 1016.0
20260502033017 3 0.0 0.0 0.00 0.00 0.00 74 1016.0
20260502032016 4 0.0 0.0 0.00 0.00 0.00 72 1015.9
20260502031017 4 0.0 0.0 0.00 0.00 0.00 70 1016.0
20260502030016 5 0.0 0.0 0.00 0.00 0.00 68 1016.0
20260502025016 5 0.0 0.0 0.00 0.00 0.00 65 1016.1
20260502024016 6 0.0 0.0 0.00 0.00 0.00 63 1016.0
20260502023016 6 0.0 0.0 0.00 0.00 0.00 62 1016.0
20260502022016 6 0.0 0.0 0.00 0.00 0.00 60 1016.0
20260502021016 6 0.0 0.0 0.00 0.00 0.00 60 1015.7
20260502020016 7 0.0 0.0 0.00 0.00 0.00 47 1015.7
20260502015016 7 0.0 0.0 0.00 0.00 0.00 47 1015.6
20260502014016 8 0.0 0.0 0.00 0.00 0.00 47 1015.5
20260502013016 8 0.0 0.0 0.00 0.00 0.00 47 1015.4
20260502012017 8 0.0 0.0 0.00 0.00 0.00 47 1015.3
20260502011036 9 0.0 0.0 0.00 0.00 0.00 47 1015.4
20260502010017 9 0.0 0.0 0.00 0.00 0.00 47 1015.3
20260502005021 9 0.0 0.0 0.00 0.00 0.00 47 1015.2
20260502004029 10 0.0 0.0 0.00 0.00 0.00 45 1015.3
20260502003016 10 0.0 0.0 0.00 0.00 0.00 43 1015.3
20260502002017 10 0.0 0.0 0.00 0.00 0.00 42 1015.2
20260502001016 10 0.0 1.6 0.00 0.00 0.00 41 1015.3
20260502000017 10 0.0 0.0 0.00 0.00 0.00 43 1015.3
20260501235016 11 0.0 0.0 0.00 0.00 0.00 44 1015.4
20260501234016 11 0.0 0.0 0.00 0.00 0.00 43 1015.2
20260501233016 11 0.0 3.2 0.00 0.00 0.00 44 1015.2
20260501232016 12 0.0 3.2 0.00 0.00 0.00 36 1015.3
20260501231037 12 338 1.6 16.1 0.00 0.00 0.00 43 1015.2
20260501230016 12 0 3.2 12.9 0.00 0.00 0.00 41 1015.2
20260501225036 11 338 1.6 11.3 0.00 0.00 0.00 46 1015.3
20260501224016 11 0.0 4.8 0.00 0.00 0.00 41 1015.4
20260501223016 11 0.0 3.2 0.00 0.00 0.00 42 1015.5
20260501222016 11 0.0 9.7 0.00 0.00 0.00 39 1015.5
20260501221016 11 0.0 9.7 0.00 0.00 0.00 42 1015.4
20260501220016 11 0.0 4.8 0.00 0.00 0.00 41 1015.4
20260501215036 11 0.0 4.8 0.00 0.00 0.00 43 1015.4
20260501214015 11 0.0 0.0 0.00 0.00 0.00 42 1015.4
20260501213016 11 0.0 4.8 0.00 0.00 0.00 43 1015.3